#timestamp,LO_Frequency,Hit,StdDev 
1585224015.1,286046988.9,N
1585224035.8,286046987.1,N
1585224055.7,286046987.2,N
1585224075.5,286046984.5,N
1585224095.4,286046990.0,N
1585224115.2,286046989.3,N
1585224135.0,286046987.0,N
1585224135.9,286046987.0,N
1585224155.8,286046987.5,N
1585224175.6,286046987.6,N
1585224195.4,286046990.4,N
1585224215.3,286047004.4,N
1585224235.1,286046996.1,N
1585224255.9,286047002.0,N
1585224275.7,286046997.6,N
1585224295.5,286046993.5,N
1585224315.4,286046999.1,N
1585224335.2,286046996.3,N
1585224355.0,286046990.5,N
1585224355.9,286046990.5,N
1585224375.8,286046992.4,N
1585224395.6,286047008.7,N
1585224415.5,286047013.9,N
1585224435.3,286047009.9,N
1585224455.1,286046999.2,N
1585224475.9,286046994.5,N
1585224495.7,286046998.4,N
1585224515.5,286046999.3,N
1585224535.4,286047004.8,N
1585224555.2,286046999.4,N
1585224575.1,286046996.3,N
1585224576.0,286046996.3,N
1585224595.8,286046994.2,N
1585224615.6,286046995.7,N
1585224635.5,286046992.3,N
1585224655.3,286046989.1,N
1585224675.1,286046993.7,N
1585224725.9,286047002.4,E
1585224735.8,286047000.1,N
1585224755.7,286046990.7,P
1585224775.5,286046989.1,N
1585224795.3,286046986.1,N
1585224815.2,286046987.7,N
1585224835.0,286046986.4,N
1585224835.9,286046986.4,N
1585224855.8,286046983.9,Y
1585224875.6,286047001.3,P
1585224895.4,286047013.3,N
1585224915.3,286047013.3,N
1585224935.1,286047003.4,N
1585224955.9,286047005.2,N
1585224975.7,286047007.6,N
1585224995.5,286047003.3,N
1585225015.4,286047001.2,N
1585225035.2,286046994.1,N
1585225055.1,286046991.8,N
1585225056.0,286046991.8,N
1585225075.8,286046990.9,N
1585225095.6,286046997.3,N
1585225115.5,286046993.6,N
1585225135.3,286046989.7,N
1585225155.2,286046985.6,N
1585225175.9,286046987.5,N
1585225195.7,286046986.8,N
1585225215.6,286046990.6,N
1585225235.4,286046993.5,N
1585225255.2,286047010.2,N
1585225275.1,286047011.9,N
1585225276.0,286047011.9,N
1585225295.8,286047008.8,N
1585225315.7,286047004.5,N
1585225335.5,286047002.9,N
1585225355.3,286047007.3,N
1585225375.2,286046999.9,N
1585225395.0,286046997.1,N
1585225395.9,286046997.1,N
1585225415.7,286046992.8,N
1585225435.6,286047003.0,N
1585225455.4,286047008.0,N
1585225475.3,286047005.4,N
1585225495.1,286046999.1,N
1585225496.0,286046999.1,N
1585225515.8,286046996.5,N
1585225535.7,286046994.3,N
1585225555.5,286046989.1,N
1585225575.3,286046989.1,N
1585225595.2,286046980.9,N
1585225615.0,286046980.3,N
1585225615.9,286046980.3,N
1585225635.8,286046979.0,N
1585225655.6,286046983.6,N
1585225675.4,286046992.5,N
1585225695.3,286046993.5,N
1585225715.1,286047001.9,N
1585225735.9,286046999.3,N
1585225755.7,286047002.7,N
1585225775.5,286046994.0,N
1585225795.4,286046992.3,N
1585225815.2,286046989.0,N
1585225835.0,286046990.1,N
1585225835.9,286046990.1,N
1585225855.8,286046989.0,N
1585225875.6,286046991.4,N
1585225895.5,286046989.7,N
1585225915.3,286046982.6,N
1585225935.1,286046979.2,N
1585225955.9,286046974.1,Y
1585225975.7,286046986.8,P
1585225995.5,286046983.9,P
1585226015.4,286046987.7,P
1585226035.2,286046980.8,Y
1585226055.1,286046994.5,P
1585226056.0,286046994.5,N
1585226075.8,286046997.9,N
1585226095.6,286047002.9,N
1585226115.5,286047009.1,N
1585226135.3,286047009.4,N
1585226155.1,286047012.3,N
1585226175.9,286047012.8,N
1585226195.7,286047008.7,N
1585226215.6,286047005.1,N
1585226235.4,286047002.2,N
1585226255.2,286046997.5,N
1585226275.1,286046992.1,N
1585226276.0,286046992.1,N
1585226295.8,286046989.1,N
1585226315.7,286046993.3,N
1585226335.5,286047001.7,N
1585226355.3,286046999.1,N
1585226375.2,286046993.5,N
1585226395.9,286046989.0,N
1585226415.7,286046982.1,N
1585226435.6,286046982.4,N
1585226455.4,286046989.5,N
1585226475.2,286046999.3,N
1585226495.1,286047001.2,N
1585226496.0,286047001.2,N
1585226515.8,286047006.5,N
1585226535.7,286047004.3,N
1585226555.5,286047003.9,N
1585226575.3,286047004.1,N
1585226595.2,286047002.6,N
1585226615.0,286047003.0,N
1585226615.9,286047003.0,N
1585226635.8,286047012.4,N
1585226655.6,286046996.9,N
1585226675.4,286046999.6,N
1585226695.3,286046994.9,N
1585226715.1,286046997.4,N
1585226735.9,286046991.6,N
1585226755.7,286046995.2,N
1585226775.5,286046991.9,N
1585226795.4,286046985.7,N
1585226815.2,286046985.2,N
1585226835.0,286046979.4,N
1585226835.9,286046979.4,N
1585226855.8,286046980.2,N
1585226875.6,286046975.7,N
1585226895.5,286046978.7,N
1585226915.3,286046990.1,N
1585226935.1,286046987.1,N
1585226955.9,286046983.7,N
1585226975.7,286046983.3,N
1585226995.5,286046986.9,N
1585227015.4,286046995.9,N
1585227035.2,286046992.9,N
1585227055.1,286046985.4,N
1585227056.0,286046985.4,N
1585227075.8,286046982.0,N
1585227095.6,286046977.9,N
1585227115.5,286046973.3,N
1585227135.3,286046971.0,Y
1585227155.2,286046988.9,P
1585227175.9,286046988.0,P
1585227195.7,286046987.9,P
1585227215.6,286046994.3,Y
1585227235.4,286047006.8,P
1585227255.3,286047015.4,N
1585227275.1,286047004.1,N
1585227276.0,286047004.1,N
1585227295.8,286046997.9,N
1585227315.7,286046995.5,N
1585227335.5,286046992.9,N
1585227355.3,286046994.7,N
1585227375.2,286046990.0,N
1585227395.0,286046984.3,N
1585227395.9,286046984.3,N
1585227415.8,286046982.2,N
1585227435.6,286046982.7,N
1585227455.4,286046980.9,N
1585227475.3,286046980.4,N
1585227495.1,286046980.3,N
1585227515.8,286046978.0,N
1585227535.7,286046974.6,N
1585227555.5,286046975.1,N
1585227575.4,286046973.7,N
1585227595.2,286046978.7,N
